Location: Kawakawa
(35.3830°S, 174.0670°E)
Time: 14:34:43
(UTC+13:00)

Altair - Pass Details

Date: 07 December 2019
Orbit: 1502 x 1682 km, 47.2° (Epoch: 22 January)

Event Time Altitude Azimuth Distance (km) Brightness Sun altitude
Rises 12:28:40 0° 282° (WNW) 4,814 10.0 73.7°
Reaches altitude 10° 12:31:52 10° 277° (W) 3,855 9.6 74.1°
Maximum altitude 12:41:31 54° 201° (SSW) 1,963 8.8 75.3°
Drops below altitude 10° 12:51:30 10° 124° (SE) 3,962 9.8 76.2°
Sets 12:54:50 0° 119° (ESE) 4,954 10.1 76.4°
